AXB102 VABB-VOHS

Flight info

Callsign AXB102
Flight time 1h 4m
Altitude 33000
Route BBB W28 HIA
Aircraft B752/M-SDE2E3FGHIJ3J4J7RWXY/LB1

Departure

Time 2026-04-21 16:16
Airport Chhatrapati Shivaji Maharaj International Airport (VABB)

Arrival

Time 2026-04-21 17:20
Airport Rajiv Gandhi International Airport (VOHS)
Time Latitude Longitude Altitude Speed Heading
2026-04-21 16:04 19.09570 72.87958 34 ft 0 kts 100°
2026-04-21 16:10 19.09572 72.87949 34 ft 2 kts 101°
2026-04-21 16:10 19.09575 72.87933 34 ft 2 kts 100°
2026-04-21 16:10 19.09577 72.87917 34 ft 2 kts 100°
2026-04-21 16:11 19.09584 72.87903 35 ft 2 kts 137°
2026-04-21 16:11 19.09597 72.87895 35 ft 1 kts 166°
2026-04-21 16:11 19.09603 72.87894 35 ft 1 kts 178°
2026-04-21 16:11 19.09607 72.87894 35 ft 0 kts 175°
2026-04-21 16:13 19.09583 72.87895 35 ft 6 kts 180°
2026-04-21 16:14 19.09518 72.87877 33 ft 12 kts 203°
2026-04-21 16:14 19.09427 72.87824 33 ft 17 kts 212°
2026-04-21 16:14 19.09304 72.87764 32 ft 22 kts 191°
2026-04-21 16:14 19.09159 72.87772 30 ft 20 kts 150°
2026-04-21 16:15 19.09009 72.87808 30 ft 24 kts 179°
2026-04-21 16:15 19.08888 72.87775 29 ft 18 kts 254°
2026-04-21 16:15 19.08881 72.87501 27 ft 70 kts 269°
2026-04-21 16:15 19.08872 72.86743 31 ft 138 kts 269°
2026-04-21 16:16 19.08853 72.85497 426 ft 183 kts 270°
2026-04-21 16:16 19.08834 72.84280 1641 ft 175 kts 276°
2026-04-21 16:16 19.08832 72.82976 2300 ft 184 kts 276°
2026-04-21 16:16 19.08810 72.81574 2826 ft 199 kts 274°
2026-04-21 16:17 19.08786 72.80068 3307 ft 217 kts 274°
2026-04-21 16:17 19.08740 72.78386 3820 ft 239 kts 267°
2026-04-21 16:17 19.08142 72.76701 4377 ft 262 kts 234°
2026-04-21 16:17 19.06634 72.75542 4967 ft 280 kts 199°
2026-04-21 16:18 19.04679 72.75228 5762 ft 285 kts 181°
2026-04-21 16:18 19.02709 72.75237 6662 ft 286 kts 178°
2026-04-21 16:18 19.00720 72.75259 7543 ft 288 kts 179°
2026-04-21 16:18 18.98724 72.75228 8360 ft 292 kts 180°
2026-04-21 16:19 18.96676 72.75156 8725 ft 293 kts 180°
2026-04-21 16:19 18.94609 72.75061 9174 ft 303 kts 181°
2026-04-21 16:19 18.92545 72.74960 10264 ft 296 kts 181°
2026-04-21 16:19 18.90428 72.74886 10770 ft 311 kts 176°
2026-04-21 16:20 18.88321 72.75433 11241 ft 322 kts 150°
2026-04-21 16:20 18.86633 72.77004 11718 ft 334 kts 124°
2026-04-21 16:20 18.85736 72.79266 12529 ft 338 kts 105°
2026-04-21 16:20 18.85209 72.81695 13408 ft 340 kts 103°
2026-04-21 16:21 18.84710 72.84152 14102 ft 348 kts 103°
2026-04-21 16:21 18.84179 72.86622 14866 ft 353 kts 104°
2026-04-21 16:21 18.83591 72.89181 15596 ft 359 kts 104°
2026-04-21 16:21 18.82978 72.91747 16309 ft 365 kts 105°
2026-04-21 16:22 18.82349 72.94331 17010 ft 370 kts 105°
2026-04-21 16:22 18.81701 72.96971 17663 ft 377 kts 105°
2026-04-21 16:22 18.81047 72.99641 18405 ft 380 kts 105°
2026-04-21 16:22 18.80378 73.02372 19148 ft 383 kts 104°
2026-04-21 16:23 18.79716 73.05074 19816 ft 387 kts 104°
2026-04-21 16:23 18.79041 73.07832 20513 ft 390 kts 104°
2026-04-21 16:23 18.78365 73.10595 21164 ft 394 kts 104°
2026-04-21 16:23 18.77678 73.13403 21833 ft 397 kts 104°
2026-04-21 16:24 18.76991 73.16206 22434 ft 400 kts 104°
2026-04-21 16:24 18.76288 73.19076 23056 ft 404 kts 104°
2026-04-21 16:24 18.75584 73.21949 23635 ft 408 kts 104°
2026-04-21 16:24 18.74867 73.24869 24146 ft 413 kts 104°
2026-04-21 16:25 18.74146 73.27807 24657 ft 418 kts 105°
2026-04-21 16:25 18.73417 73.30774 25186 ft 422 kts 105°
2026-04-21 16:25 18.72681 73.33763 25653 ft 427 kts 105°
2026-04-21 16:25 18.71933 73.36800 26156 ft 431 kts 105°
2026-04-21 16:26 18.71173 73.39880 26637 ft 435 kts 105°
2026-04-21 16:26 18.70408 73.42979 27097 ft 440 kts 105°
2026-04-21 16:26 18.69641 73.46088 27644 ft 441 kts 105°
2026-04-21 16:26 18.68869 73.49213 28357 ft 439 kts 105°
2026-04-21 16:27 18.68111 73.52282 28988 ft 437 kts 105°
2026-04-21 16:27 18.67342 73.55396 29530 ft 438 kts 106°
2026-04-21 16:27 18.66575 73.58496 30032 ft 439 kts 106°
2026-04-21 16:27 18.65804 73.61610 30511 ft 440 kts 107°
2026-04-21 16:28 18.65039 73.64698 31043 ft 439 kts 108°
2026-04-21 16:28 18.64267 73.67818 31539 ft 439 kts 109°
2026-04-21 16:28 18.63500 73.70911 31999 ft 439 kts 109°
2026-04-21 16:28 18.62725 73.74030 32432 ft 440 kts 110°
2026-04-21 16:29 18.61949 73.77147 32837 ft 441 kts 110°
2026-04-21 16:29 18.61159 73.80312 32961 ft 444 kts 110°
2026-04-21 16:29 18.60378 73.83441 32966 ft 441 kts 111°
2026-04-21 16:30 18.58821 73.89599 32970 ft 437 kts 112°
2026-04-21 16:30 18.56724 73.95576 32968 ft 433 kts 120°
2026-04-21 16:31 18.54240 74.01300 32961 ft 428 kts 122°
2026-04-21 16:31 18.51694 74.07004 32960 ft 431 kts 122°
2026-04-21 16:32 18.49173 74.12698 32959 ft 430 kts 122°
2026-04-21 16:32 18.46671 74.18417 32959 ft 429 kts 122°
2026-04-21 16:33 18.44204 74.24081 32963 ft 430 kts 122°
2026-04-21 16:33 18.41710 74.29812 32961 ft 429 kts 122°
2026-04-21 16:34 18.39244 74.35482 32963 ft 427 kts 122°
2026-04-21 16:34 18.36765 74.41177 32961 ft 428 kts 122°
2026-04-21 16:35 18.34294 74.46854 32959 ft 426 kts 122°
2026-04-21 16:35 18.31820 74.52528 32959 ft 425 kts 122°
2026-04-21 16:36 18.29334 74.58209 32955 ft 426 kts 122°
2026-04-21 16:36 18.26864 74.63856 32956 ft 426 kts 122°
2026-04-21 16:37 18.24388 74.69521 32947 ft 424 kts 123°
2026-04-21 16:37 18.21934 74.75160 32943 ft 425 kts 122°
2026-04-21 16:38 18.19490 74.80811 32937 ft 423 kts 122°
2026-04-21 16:38 18.17064 74.86422 32932 ft 420 kts 123°
2026-04-21 16:39 18.14618 74.92061 32934 ft 431 kts 123°
2026-04-21 16:39 18.12063 74.97903 32926 ft 451 kts 122°
2026-04-21 16:40 18.09396 75.04003 32922 ft 470 kts 122°
2026-04-21 16:40 18.06643 75.10323 32921 ft 478 kts 122°
2026-04-21 16:41 18.04353 75.15610 32923 ft 479 kts 122°
2026-04-21 16:41 18.01114 75.23074 32926 ft 476 kts 122°
2026-04-21 16:42 17.98365 75.29396 32925 ft 480 kts 122°
2026-04-21 16:42 17.95611 75.35717 32921 ft 476 kts 122°
2026-04-21 16:43 17.92843 75.42051 32926 ft 477 kts 122°
2026-04-21 16:43 17.90055 75.48417 32925 ft 478 kts 121°
2026-04-21 16:44 17.87278 75.54748 32926 ft 477 kts 122°
2026-04-21 16:44 17.84499 75.61077 32929 ft 479 kts 122°
2026-04-21 16:45 17.81723 75.67400 32930 ft 476 kts 122°
2026-04-21 16:45 17.78957 75.73693 32932 ft 478 kts 121°
2026-04-21 16:46 17.76178 75.80010 32932 ft 477 kts 122°
2026-04-21 16:46 17.73398 75.86322 32933 ft 475 kts 122°
2026-04-21 16:47 17.70617 75.92630 32934 ft 476 kts 121°
2026-04-21 16:47 17.67826 75.98950 32936 ft 478 kts 121°
2026-04-21 16:48 17.65045 76.05218 32937 ft 475 kts 121°
2026-04-21 16:48 17.62226 76.11529 32931 ft 478 kts 121°
2026-04-21 16:49 17.59423 76.17790 32933 ft 478 kts 121°
2026-04-21 16:49 17.56595 76.24103 32921 ft 480 kts 121°
2026-04-21 16:50 17.53770 76.30411 32925 ft 482 kts 121°
2026-04-21 16:50 17.50937 76.36735 32925 ft 479 kts 121°
2026-04-21 16:51 17.48105 76.43039 32924 ft 481 kts 121°
2026-04-21 16:51 17.45251 76.49389 32921 ft 482 kts 121°
2026-04-21 16:52 17.42408 76.55720 32920 ft 485 kts 121°
2026-04-21 16:52 17.39550 76.62077 32913 ft 482 kts 121°
2026-04-21 16:53 17.36671 76.68464 32914 ft 481 kts 122°
2026-04-21 16:53 17.33820 76.74795 32914 ft 485 kts 121°
2026-04-21 16:54 17.31603 76.81486 32903 ft 498 kts 108°
2026-04-21 16:54 17.30719 76.88739 32892 ft 505 kts 99°
2026-04-21 16:55 17.30355 76.96056 32752 ft 498 kts 97°
2026-04-21 16:55 17.30228 76.99661 32471 ft 490 kts 97°
2026-04-21 16:55 17.30101 77.03185 32033 ft 490 kts 97°
2026-04-21 16:55 17.29963 77.06710 31489 ft 489 kts 97°
2026-04-21 16:56 17.29812 77.10274 30907 ft 485 kts 97°
2026-04-21 16:56 17.29652 77.13784 30318 ft 481 kts 96°
2026-04-21 16:56 17.29489 77.17221 29748 ft 477 kts 96°
2026-04-21 16:56 17.29318 77.20692 29170 ft 474 kts 96°
2026-04-21 16:57 17.29144 77.24112 28586 ft 470 kts 96°
2026-04-21 16:57 17.28972 77.27484 28002 ft 466 kts 95°
2026-04-21 16:57 17.28797 77.30862 27442 ft 462 kts 95°
2026-04-21 16:57 17.28624 77.34194 26876 ft 458 kts 95°
2026-04-21 16:58 17.28450 77.37495 26331 ft 453 kts 95°
2026-04-21 16:58 17.28278 77.40767 25774 ft 449 kts 95°
2026-04-21 16:58 17.28109 77.43969 25233 ft 445 kts 95°
2026-04-21 16:58 17.27939 77.47171 24692 ft 440 kts 95°
2026-04-21 16:59 17.27768 77.50355 24147 ft 436 kts 94°
2026-04-21 16:59 17.27599 77.53502 23594 ft 432 kts 94°
2026-04-21 16:59 17.27432 77.56624 23065 ft 427 kts 94°
2026-04-21 16:59 17.27266 77.59700 22544 ft 422 kts 94°
2026-04-21 17:00 17.27102 77.62742 22020 ft 417 kts 94°
2026-04-21 17:00 17.26940 77.65734 21513 ft 412 kts 94°
2026-04-21 17:00 17.26832 77.67733 21174 ft 409 kts 94°
2026-04-21 17:00 17.26619 77.71651 20522 ft 402 kts 94°
2026-04-21 17:01 17.26394 77.74533 20039 ft 397 kts 97°
2026-04-21 17:01 17.25975 77.77382 19549 ft 392 kts 101°
2026-04-21 17:01 17.25436 77.80123 19061 ft 388 kts 103°
2026-04-21 17:01 17.25177 77.81331 18853 ft 385 kts 103°
2026-04-21 17:02 17.24577 77.84036 18374 ft 381 kts 103°
2026-04-21 17:02 17.23973 77.86722 17909 ft 377 kts 103°
2026-04-21 17:02 17.23375 77.89420 17443 ft 388 kts 102°
2026-04-21 17:02 17.22774 77.92181 16960 ft 390 kts 102°
2026-04-21 17:03 17.22188 77.94918 16482 ft 387 kts 102°
2026-04-21 17:03 17.21606 77.97659 16005 ft 384 kts 102°
2026-04-21 17:03 17.21029 78.00386 15529 ft 382 kts 102°
2026-04-21 17:03 17.20457 78.03094 15050 ft 381 kts 101°
2026-04-21 17:04 17.19893 78.05767 14569 ft 379 kts 101°
2026-04-21 17:04 17.19326 78.08446 14097 ft 377 kts 102°
2026-04-21 17:04 17.18550 78.11025 13590 ft 375 kts 107°
2026-04-21 17:04 17.17842 78.13665 12969 ft 373 kts 101°
2026-04-21 17:05 17.17346 78.16310 12438 ft 369 kts 98°
2026-04-21 17:05 17.16915 78.18924 11900 ft 367 kts 98°
2026-04-21 17:05 17.16468 78.21533 11377 ft 364 kts 99°
2026-04-21 17:05 17.15982 78.24128 10813 ft 362 kts 100°
2026-04-21 17:06 17.15467 78.26688 10325 ft 359 kts 101°
2026-04-21 17:06 17.14939 78.29200 9815 ft 356 kts 101°
2026-04-21 17:06 17.14399 78.31721 9558 ft 344 kts 101°
2026-04-21 17:06 17.13900 78.34110 9443 ft 329 kts 98°
2026-04-21 17:07 17.13752 78.35675 9369 ft 318 kts 90°
2026-04-21 17:07 17.13925 78.38625 9282 ft 298 kts 82°
2026-04-21 17:07 17.14143 78.40762 9061 ft 291 kts 83°
2026-04-21 17:07 17.14297 78.42865 8701 ft 290 kts 85°
2026-04-21 17:08 17.14378 78.44910 8654 ft 276 kts 86°
2026-04-21 17:08 17.14419 78.46886 8633 ft 262 kts 87°
2026-04-21 17:08 17.14448 78.48724 8633 ft 246 kts 87°
2026-04-21 17:08 17.14479 78.50494 8397 ft 242 kts 86°
2026-04-21 17:09 17.14472 78.53999 7793 ft 241 kts 89°
2026-04-21 17:09 17.14432 78.55736 7517 ft 239 kts 89°
2026-04-21 17:09 17.14394 78.57453 7202 ft 239 kts 89°
2026-04-21 17:10 17.14359 78.59186 6895 ft 237 kts 89°
2026-04-21 17:10 17.14329 78.60917 6593 ft 236 kts 89°
2026-04-21 17:10 17.14300 78.62611 6292 ft 235 kts 89°
2026-04-21 17:10 17.14272 78.64336 5988 ft 234 kts 89°
2026-04-21 17:11 17.14248 78.66019 5691 ft 233 kts 89°
2026-04-21 17:11 17.14226 78.67709 5414 ft 232 kts 90°
2026-04-21 17:11 17.14209 78.69405 5137 ft 232 kts 89°
2026-04-21 17:11 17.14233 78.71069 4881 ft 229 kts 84°
2026-04-21 17:12 17.14527 78.72698 4582 ft 227 kts 72°
2026-04-21 17:12 17.15143 78.74213 4288 ft 226 kts 60°
2026-04-21 17:12 17.16048 78.75535 4033 ft 224 kts 48°
2026-04-21 17:12 17.17211 78.76630 3709 ft 226 kts 36°
2026-04-21 17:13 17.18612 78.77349 3520 ft 224 kts 10°
2026-04-21 17:13 17.20132 78.77090 3515 ft 228 kts 330°
2026-04-21 17:13 17.21184 78.75925 3507 ft 215 kts 301°
2026-04-21 17:13 17.21882 78.74598 3514 ft 201 kts 299°
2026-04-21 17:14 17.22543 78.73305 3510 ft 201 kts 297°
2026-04-21 17:14 17.23017 78.71931 3509 ft 202 kts 283°
2026-04-21 17:14 17.23185 78.70474 3519 ft 201 kts 273°
2026-04-21 17:14 17.23208 78.69009 3515 ft 200 kts 270°
2026-04-21 17:15 17.23197 78.67555 3518 ft 199 kts 270°
2026-04-21 17:15 17.23182 78.66103 3517 ft 199 kts 270°
2026-04-21 17:15 17.23166 78.64650 3519 ft 199 kts 269°
2026-04-21 17:15 17.23148 78.63200 3521 ft 199 kts 269°
2026-04-21 17:16 17.23130 78.61743 3523 ft 200 kts 270°
2026-04-21 17:16 17.23111 78.60291 3523 ft 199 kts 269°
2026-04-21 17:16 17.23092 78.58845 3522 ft 198 kts 269°
2026-04-21 17:16 17.23076 78.57458 3517 ft 178 kts 269°
2026-04-21 17:17 17.23060 78.56240 3543 ft 163 kts 269°
2026-04-21 17:17 17.23044 78.55067 3523 ft 161 kts 269°
2026-04-21 17:17 17.23030 78.53896 3526 ft 161 kts 269°
2026-04-21 17:17 17.23013 78.52705 3397 ft 165 kts 269°
2026-04-21 17:18 17.22997 78.51509 3161 ft 161 kts 269°
2026-04-21 17:18 17.22983 78.50349 2963 ft 160 kts 269°
2026-04-21 17:18 17.22968 78.49204 2761 ft 155 kts 268°
2026-04-21 17:18 17.22952 78.48094 2555 ft 151 kts 268°
2026-04-21 17:19 17.22948 78.47008 2381 ft 147 kts 270°
2026-04-21 17:19 17.22936 78.45949 2206 ft 146 kts 267°
2026-04-21 17:19 17.22910 78.44885 2040 ft 144 kts 269°
2026-04-21 17:19 17.22895 78.43917 2031 ft 116 kts 270°
2026-04-21 17:20 17.22884 78.43299 2010 ft 58 kts 269°
2026-04-21 17:20 17.22914 78.43050 2004 ft 17 kts 290°
2026-04-21 17:20 17.22972 78.42926 1999 ft 20 kts 299°
2026-04-21 17:20 17.23044 78.42796 1993 ft 21 kts 300°
2026-04-21 17:21 17.23173 78.42731 1992 ft 21 kts 359°
2026-04-21 17:21 17.23296 78.42734 1994 ft 14 kts 23°
2026-04-21 17:21 17.23327 78.42815 1997 ft 11 kts 89°
2026-04-21 17:21 17.23327 78.42884 2000 ft 7 kts 90°
2026-04-21 17:22 17.23327 78.42917 2001 ft 5 kts 89°
2026-04-21 17:22 17.23329 78.42953 2002 ft 2 kts 71°
2026-04-21 17:22 17.23347 78.42967 2002 ft 4 kts 13°
2026-04-21 17:22 17.23393 78.42969 2002 ft 6 kts 359°
2026-04-21 17:23 17.23411 78.42969 2001 ft 1 kts
2026-04-21 17:23 17.23426 78.42968 2001 ft 0 kts 359°